Weather History for YBCS - June, 2014

Change the Weather History Date:

Saturday, June 14, 2014

  Actual Average Record
Temperature  
Mean Temperature 76 °F -  
Max Temperature 82 °F 78 °F - ()
Min Temperature 69 °F 63 °F - ()
Cooling Degree Days 10    
Growing Degree Days 26 (Base 50)    
Moisture  
Dew Point 71 °F    
Average Humidity 86    
Maximum Humidity 100    
Minimum Humidity 66    
Precipitation  
Precipitation 0.00 in 0.05 in - ()
Sea Level Pressure  
Sea Level Pressure 29.90 in    
Wind  
Wind Speed 8 mph ()    
Max Wind Speed 15 mph    
Max Gust Speed -    
Visibility 6.5 miles    
Events Fog , Rain    
T = Trace of Precipitation, MM = Missing Value Source: Averaged Metar Reports

Daily Weather History Graph

Daily Weather History Graph

Search for Another Location

Airport or City:

Trip Planner

Search our weather history database for the weather conditions in past years. The results will help you decide how hot, cold, wet, or windy it might be!

Date:

Astronomy

Jun. 14, 2014 Rise Set
Actual Time 6:43 AM AEST 5:51 PM AEST
Civil Twilight 6:19 AM AEST 6:14 PM AEST
Nautical Twilight 5:52 AM AEST 6:41 PM AEST
Astronomical Twilight 5:26 AM AEST 7:08 PM AEST
Moon 7:06 PM AEST (6/14) 7:22 AM AEST (6/14)
Length of Visible Light 11h 54m
Length of Day
11h 07m
Full, 99% of the Moon is Illuminated
Jun 14
Full
Jun 20
Last Quarter
Jun 27
New
Jul 5
First Quarter
Jul 12
Full

Hourly Weather History & Observations

Time (AEST) Temp. Heat Index Dew Point Humidity Pressure Visibility Wind Dir Wind Speed Gust Speed Precip Events Conditions
12:00 AM 74 °F - 71 °F 86% 29.91 in - South 9.2 mph - -  
12:00 AM 73.4 °F - 69.8 °F 88% 29.89 in 6.2 mi South 9.2 mph - N/A   Mostly Cloudy
12:30 AM 73.4 °F - 71.6 °F 94% 29.89 in 6.2 mi South 12.7 mph - N/A   Mostly Cloudy
1:00 AM 74 °F - 71 °F 86% 29.90 in - SE 9.2 mph - -  
1:00 AM 73.4 °F - 71.6 °F 94% 29.89 in 6.2 mi SE 9.2 mph - N/A Rain Light Rain Showers
1:30 AM 73.4 °F - 71.6 °F 94% 29.89 in 3.1 mi ESE 10.4 mph - N/A Rain Light Rain Showers
2:00 AM 71.6 °F - 71.6 °F 100% 29.89 in 3.1 mi SSE 8.1 mph - N/A Rain Light Rain Showers
2:30 AM 73.4 °F - 71.6 °F 94% 29.89 in 3.1 mi South 5.8 mph - N/A Rain Light Rain Showers
3:00 AM 72 °F - 71 °F 97% 29.90 in - South 5.8 mph - -   Overcast
3:00 AM 71.6 °F - 71.6 °F 100% 29.89 in 6.2 mi South 5.8 mph - N/A Rain Light Rain Showers
3:30 AM 71.6 °F - 71.6 °F 100% 29.89 in 6.2 mi NNE 3.5 mph - N/A   Mostly Cloudy
4:00 AM 72 °F - 71 °F 95% 29.89 in - South 2.3 mph - -  
4:00 AM 71.6 °F - 71.6 °F 100% 29.89 in 6.2 mi South 2.3 mph - N/A   Scattered Clouds
4:30 AM 71.6 °F - 69.8 °F 94% 29.89 in 6.2 mi SSE 4.6 mph - N/A   Scattered Clouds
5:00 AM 73.4 °F - 71.6 °F 94% 29.89 in 6.2 mi SE 6.9 mph - N/A   Mostly Cloudy
5:30 AM 73.4 °F - 71.6 °F 94% 29.89 in 6.2 mi SE 9.2 mph - N/A   Mostly Cloudy
6:00 AM 72 °F - 71 °F 96% 29.89 in - West 2.3 mph - -   Overcast
6:00 AM 71.6 °F - 71.6 °F 100% 29.89 in 6.2 mi West 2.3 mph - N/A   Scattered Clouds
6:30 AM 71.6 °F - 71.6 °F 100% 29.89 in 6.2 mi South 2.3 mph - N/A Fog Scattered Clouds
7:00 AM 73 °F - 71 °F 89% 29.92 in - SE 9.2 mph - -  
7:00 AM 73.4 °F - 69.8 °F 88% 29.89 in 6.2 mi SE 9.2 mph - N/A   Scattered Clouds
8:00 AM 73.4 °F - 71.6 °F 94% 29.92 in 6.2 mi SSE 9.2 mph - N/A Rain Light Rain Showers
8:30 AM 75.2 °F - 73.4 °F 94% 29.92 in 6.2 mi SE 10.4 mph - N/A   Scattered Clouds
9:00 AM 77 °F - 73 °F 84% 29.94 in 16 mi West 2.3 mph - -   Partly Cloudy
9:00 AM 77.0 °F - 73.4 °F 89% 29.92 in 6.2 mi West 2.3 mph - N/A   Scattered Clouds
9:30 AM 78.8 °F - 73.4 °F 83% 29.92 in 6.2 mi SE 8.1 mph - N/A   Scattered Clouds
10:00 AM 78 °F - 72 °F 76% 29.94 in - SE 9.2 mph - -  
10:00 AM 78.8 °F - 71.6 °F 78% 29.92 in 6.2 mi SE 9.2 mph - N/A   Partly Cloudy
10:30 AM 80.6 °F 85.4 °F 73.4 °F 79% 29.92 in 6.2 mi SE 8.1 mph - N/A   Partly Cloudy
11:00 AM 80.6 °F 84.6 °F 71.6 °F 74% 29.92 in 6.2 mi ESE 8.1 mph - N/A   Scattered Clouds
11:30 AM 82.4 °F 88.2 °F 73.4 °F 74% 29.89 in 6.2 mi East 6.9 mph - N/A   Scattered Clouds
12:00 PM 80 °F - 72 °F 72% 29.89 in - NE 9.2 mph - -  
12:00 PM 80.6 °F 85.4 °F 73.4 °F 79% 29.89 in 6.2 mi NE 9.2 mph - N/A   Partly Cloudy
12:30 PM 80.6 °F 84.6 °F 71.6 °F 74% 29.86 in 6.2 mi NE 8.1 mph - N/A   Partly Cloudy
1:00 PM 80 °F - 73 °F 73% 29.87 in - NE 9.2 mph - -  
1:00 PM 80.6 °F 85.4 °F 73.4 °F 79% 29.86 in 6.2 mi NE 9.2 mph - N/A   Partly Cloudy
1:30 PM 80.6 °F 85.4 °F 73.4 °F 79% 29.86 in 6.2 mi ENE 8.1 mph - N/A   Partly Cloudy
2:00 PM 80.6 °F 84.6 °F 71.6 °F 74% 29.83 in 6.2 mi ENE 9.2 mph - N/A   Partly Cloudy
2:30 PM 82.4 °F 87.2 °F 71.6 °F 70% 29.83 in 6.2 mi ENE 9.2 mph - N/A   Partly Cloudy
3:00 PM 80 °F - 71 °F 66% 29.84 in 19 mi East 8.1 mph - -   Partly Cloudy
3:00 PM 80.6 °F 83.9 °F 69.8 °F 70% 29.83 in 6.2 mi East 8.1 mph - N/A   Mostly Cloudy
3:30 PM 80.6 °F 83.9 °F 69.8 °F 70% 29.83 in 6.2 mi ESE 8.1 mph - N/A   Partly Cloudy
4:00 PM 78 °F - 70 °F 71% 29.85 in - South 9.2 mph - -  
4:00 PM 77.0 °F - 69.8 °F 78% 29.83 in 6.2 mi South 9.2 mph - N/A   Scattered Clouds
4:30 PM 77.0 °F - 69.8 °F 78% 29.83 in 6.2 mi SSE 9.2 mph - N/A   Scattered Clouds
5:00 PM 75.2 °F - 69.8 °F 83% 29.86 in 6.2 mi South 9.2 mph - N/A   Scattered Clouds
5:30 PM 75.2 °F - 69.8 °F 83% 29.86 in 6.2 mi SSE 9.2 mph - N/A   Mostly Cloudy
6:00 PM 74 °F - 69 °F 79% 29.88 in - SSE 9.2 mph - -   Overcast
6:00 PM 73.4 °F - 69.8 °F 88% 29.86 in - SSE 9.2 mph - N/A   Unknown
6:30 PM 73.4 °F - 68.0 °F 83% 29.89 in 6.2 mi SSE 9.2 mph - N/A   Mostly Cloudy
7:00 PM 72 °F - 69 °F 86% 29.91 in - SSE 13.8 mph - -  
7:00 PM 71.6 °F - 68.0 °F 88% 29.89 in 6.2 mi SSE 13.8 mph - N/A   Mostly Cloudy
7:30 PM 71.6 °F - 68.0 °F 88% 29.92 in 6.2 mi South 9.2 mph - N/A   Mostly Cloudy
8:00 PM 71.6 °F - 68.0 °F 88% 29.92 in 6.2 mi SSE 15.0 mph - N/A   Mostly Cloudy
8:30 PM 71.6 °F - 68.0 °F 88% 29.92 in 6.2 mi SSE 13.8 mph - N/A   Mostly Cloudy
9:00 PM 71 °F - 68 °F 87% 29.95 in - SSE 12.7 mph - -   Overcast
9:00 PM 71.6 °F - 68.0 °F 88% 29.95 in 6.2 mi SSE 12.7 mph - N/A Rain Light Rain Showers
9:30 PM 69.8 °F - 68.0 °F 94% 29.95 in 5.6 mi South 9.2 mph - N/A Rain Light Rain Showers
10:00 PM 69 °F - 67 °F 93% 29.97 in - SSE 8.1 mph - -  
10:00 PM 69.8 °F - 68.0 °F 94% 29.95 in 6.2 mi SSE 8.1 mph - N/A Rain Light Rain Showers
10:30 PM 69.8 °F - 68.0 °F 94% 29.95 in 6.2 mi SSE 10.4 mph - N/A Rain Light Rain Showers
11:00 PM 69.8 °F - 68.0 °F 94% 29.95 in 6.2 mi SSE 9.2 mph - N/A   Mostly Cloudy
11:30 PM 69.8 °F - 66.2 °F 88% 29.95 in 6.2 mi South 9.2 mph - N/A   Mostly Cloudy